Waarnemingen

Advertentie
Mijn weer
Cozzo Spadaro, Italië (16480): temperatuur & dauwpunt: 22.05.2018 12:00:00 - 28.05.2018 12:00:00 (CEST)Cozzo Spadaro, Italië (16480): windsnelheid: 22.05.2018 12:00:00 - 28.05.2018 12:00:00 (CEST)Cozzo Spadaro, Italië (16480): windrichting: 22.05.2018 12:00:00 - 28.05.2018 12:00:00 (CEST)Cozzo Spadaro, Italië (16480): luchtdruk: 22.05.2018 12:00:00 - 28.05.2018 12:00:00 (CEST)Cozzo Spadaro, Italië (16480): zicht: 22.05.2018 12:00:00 - 28.05.2018 12:00:00 (CEST)Cozzo Spadaro, Italië (16480): Zonneschijnduur: 22.05.2018 12:00:00 - 28.05.2018 12:00:00 (CEST)
Datum & Tijd tt [°C] td [°C] ff [km/u] ff [kn] dd ppp [hPa] vv [km] sd [min]
28.05.2018 12:00:00 - - - - - - - -
28.05.2018 11:00:00 23,2 17,7 8 4 ZZO 1017,1 18 60
28.05.2018 10:00:00 23,0 16,5 4 2 ONO 1016,8 18 60
28.05.2018 09:00:00 22,0 16,9 2 1 Z 1016,9 16 60
28.05.2018 08:00:00 20,8 16,2 2 1 WZW 1016,7 10 54
28.05.2018 07:00:00 - - - - - - - -
28.05.2018 06:00:00 - - - - - - - -
28.05.2018 05:00:00 - - - - - - - -
28.05.2018 04:00:00 - - - - - - - -
28.05.2018 03:00:00 - - - - - - - -
28.05.2018 02:00:00 - - - - - - - -
28.05.2018 01:00:00 - - - - - - - -
28.05.2018 00:00:00 - - - - - - - -
27.05.2018 23:00:00 - - - - - - - -
27.05.2018 22:00:00 - - - - - - - -
27.05.2018 21:00:00 - - - - - - - -
27.05.2018 20:00:00 22,0 19,6 8 4 WZW 1016,2 12 0
27.05.2018 19:00:00 23,6 15,4 8 4 WZW 1016,2 20 60
27.05.2018 18:00:00 24,0 15,0 8 4 ZW 1016,8 20 60
27.05.2018 17:00:00 25,0 16,2 9 5 ZW 1017,0 20 60
27.05.2018 16:00:00 24,6 14,4 13 7 W 1017,5 20 60
27.05.2018 15:00:00 24,4 16,7 15 8 W 1017,8 16 18
27.05.2018 14:00:00 24,4 16,1 11 6 WZW 1018,2 16 30
27.05.2018 13:00:00 24,0 17,7 11 6 ZW 1018,5 16 42
27.05.2018 12:00:00 24,0 17,7 8 4 Z 1018,6 16 60
27.05.2018 11:00:00 23,2 17,9 8 4 OZO 1017,9 14 60
27.05.2018 10:00:00 22,8 18,1 5 3 O 1017,3 14 60
27.05.2018 09:00:00 21,8 17,8 9 5 O 1016,9 12 60
27.05.2018 08:00:00 19,8 16,4 2 1 NO 1016,8 12 48
27.05.2018 07:00:00 - - - - - - - -
27.05.2018 06:00:00 - - - - - - - -
27.05.2018 05:00:00 - - - - - - - -
27.05.2018 04:00:00 - - - - - - - -
27.05.2018 03:00:00 - - - - - - - -
27.05.2018 02:00:00 - - - - - - - -
27.05.2018 01:00:00 - - - - - - - -
27.05.2018 00:00:00 - - - - - - - -
26.05.2018 23:00:00 - - - - - - - -
26.05.2018 22:00:00 - - - - - - - -
26.05.2018 21:00:00 - - - - - - - -
26.05.2018 20:00:00 22,0 17,4 0 0 N 1016,0 20 0
26.05.2018 19:00:00 22,2 17,4 0 0 N 1016,0 20 60
26.05.2018 18:00:00 23,0 17,5 5 3 OZO 1016,0 20 60
26.05.2018 17:00:00 24,0 18,2 5 3 ZO 1016,8 20 60
26.05.2018 16:00:00 24,0 17,5 8 4 OZO 1016,8 20 60
26.05.2018 15:00:00 24,6 17,8 9 5 OZO 1016,7 20 60
26.05.2018 14:00:00 24,0 16,3 13 7 OZO 1016,8 20 60
26.05.2018 13:00:00 23,6 17,6 13 7 O 1016,7 20 60
26.05.2018 12:00:00 23,0 17,2 9 5 ONO 1016,4 20 60
26.05.2018 11:00:00 22,6 16,9 8 4 ONO 1016,0 20 60
26.05.2018 10:00:00 21,6 16,8 8 4 ONO 1016,0 15 60
26.05.2018 09:00:00 20,8 16,6 4 2 ONO 1015,8 15 60
26.05.2018 08:00:00 20,0 16,2 4 2 O 1015,0 15 60
26.05.2018 07:00:00 - - - - - - - -
26.05.2018 06:00:00 - - - - - - - -
26.05.2018 05:00:00 - - - - - - - -
26.05.2018 04:00:00 - - - - - - - -
26.05.2018 03:00:00 - - - - - - - -
26.05.2018 02:00:00 - - - - - - - -
26.05.2018 01:00:00 - - - - - - - -
26.05.2018 00:00:00 - - - - - - - -
25.05.2018 23:00:00 - - - - - - - -
25.05.2018 22:00:00 - - - - - - - -
25.05.2018 21:00:00 - - - - - - - -
25.05.2018 20:00:00 20,6 16,4 9 5 WZW 1013,8 25 0
25.05.2018 19:00:00 21,0 16,8 9 5 WZW 1013,9 25 60
25.05.2018 18:00:00 21,4 17,0 11 6 WZW 1013,9 25 60
25.05.2018 17:00:00 22,0 16,7 13 7 ZW 1014,0 25 60
25.05.2018 16:00:00 22,8 16,6 9 5 ZW 1013,9 25 60
25.05.2018 15:00:00 23,0 16,1 8 4 ZW 1014,6 25 60
25.05.2018 14:00:00 23,0 15,3 8 4 Z 1014,6 25 60
25.05.2018 13:00:00 22,4 15,5 8 4 Z 1014,8 25 60
25.05.2018 12:00:00 22,0 15,4 9 5 ZZO 1014,8 25 60
25.05.2018 11:00:00 22,0 15,4 5 3 ZO 1014,8 20 60
25.05.2018 10:00:00 21,0 15,3 4 2 O 1014,8 25 60
25.05.2018 09:00:00 20,8 14,5 2 1 O 1014,7 25 60
25.05.2018 08:00:00 19,4 14,4 4 2 NO 1014,5 20 60
25.05.2018 07:00:00 - - - - - - - -
25.05.2018 06:00:00 - - - - - - - -
25.05.2018 05:00:00 - - - - - - - -
25.05.2018 04:00:00 - - - - - - - -
25.05.2018 03:00:00 - - - - - - - -
25.05.2018 02:00:00 - - - - - - - -
25.05.2018 01:00:00 - - - - - - - -
25.05.2018 00:00:00 - - - - - - - -
24.05.2018 23:00:00 - - - - - - - -
24.05.2018 22:00:00 - - - - - - - -
24.05.2018 21:00:00 - - - - - - - -
24.05.2018 20:00:00 21,0 14,4 4 2 W 1014,5 25 18
24.05.2018 19:00:00 21,4 14,1 5 3 WZW 1014,9 25 60
24.05.2018 18:00:00 22,0 13,6 5 3 WZW 1015,0 25 60
24.05.2018 17:00:00 22,2 13,8 8 4 ZW 1015,3 20 60
24.05.2018 16:00:00 22,6 13,1 8 4 ZW 1015,5 25 60
24.05.2018 15:00:00 22,0 14,4 9 5 WZW 1015,8 25 60
24.05.2018 14:00:00 21,4 15,9 11 6 WZW 1016,0 25 60
24.05.2018 13:00:00 22,0 16,1 11 6 ZW 1016,0 25 60
24.05.2018 12:00:00 22,0 14,9 8 4 ZO 1016,0 25 60
24.05.2018 11:00:00 21,6 14,7 9 5 O 1016,0 20 60
24.05.2018 10:00:00 21,4 14,3 13 7 ONO 1016,0 25 60
24.05.2018 09:00:00 20,0 14,1 8 4 ONO 1016,0 25 60
24.05.2018 08:00:00 18,6 13,0 9 5 N 1015,5 25 54
24.05.2018 07:00:00 - - - - - - - -
24.05.2018 06:00:00 - - - - - - - -
24.05.2018 05:00:00 - - - - - - - -
24.05.2018 04:00:00 - - - - - - - -
24.05.2018 03:00:00 - - - - - - - -
24.05.2018 02:00:00 - - - - - - - -
24.05.2018 01:00:00 - - - - - - - -
24.05.2018 00:00:00 - - - - - - - -
23.05.2018 23:00:00 - - - - - - - -
23.05.2018 22:00:00 - - - - - - - -
23.05.2018 21:00:00 - - - - - - - -
23.05.2018 20:00:00 20,6 17,0 0 0 N 1014,0 20 18
23.05.2018 19:00:00 21,8 16,1 8 4 NW 1013,0 20 60
23.05.2018 18:00:00 21,6 16,1 16 9 WNW 1013,0 15 60
23.05.2018 17:00:00 22,0 16,3 18 10 WNW 1012,9 15 60
23.05.2018 16:00:00 22,2 16,5 24 13 W 1012,9 20 60
23.05.2018 15:00:00 22,6 15,9 26 14 W 1013,1 20 60
23.05.2018 14:00:00 22,6 15,9 24 13 W 1013,3 20 60
23.05.2018 13:00:00 22,4 15,7 24 13 W 1013,3 20 60
23.05.2018 12:00:00 22,4 15,7 22 12 W 1013,3 20 60
23.05.2018 11:00:00 21,8 16,5 16 9 W 1013,2 20 60
23.05.2018 10:00:00 21,2 16,0 11 6 W 1013,0 20 60
23.05.2018 09:00:00 20,6 16,0 9 5 W 1013,0 20 60
23.05.2018 08:00:00 19,4 15,1 4 2 WNW 1012,5 20 42
23.05.2018 07:00:00 - - - - - - - -
23.05.2018 06:00:00 - - - - - - - -
23.05.2018 05:00:00 - - - - - - - -
23.05.2018 04:00:00 - - - - - - - -
23.05.2018 03:00:00 - - - - - - - -
23.05.2018 02:00:00 - - - - - - - -
23.05.2018 01:00:00 - - - - - - - -
23.05.2018 00:00:00 - - - - - - - -
22.05.2018 23:00:00 - - - - - - - -
22.05.2018 22:00:00 - - - - - - - -
22.05.2018 21:00:00 - - - - - - - -
22.05.2018 20:00:00 20,2 17,6 22 12 ONO 1011,8 10 0
22.05.2018 19:00:00 20,4 17,6 16 9 NO 1011,9 10 0
22.05.2018 18:00:00 20,8 17,8 21 11 NO 1011,9 10 0
22.05.2018 17:00:00 21,4 18,2 18 10 NO 1011,9 10 0
22.05.2018 16:00:00 21,6 18,2 18 10 ONO 1012,0 10 0
22.05.2018 15:00:00 21,8 18,2 21 11 ONO 1012,3 10 6
22.05.2018 14:00:00 21,8 17,8 18 10 ONO 1012,4 10 18
22.05.2018 13:00:00 21,4 17,6 18 10 ONO 1012,5 10 30
22.05.2018 12:00:00 21,2 17,2 22 12 ONO 1012,4 10 6

tt = temperatuur
td = dauwpunt
ff = windsnelheid
dd = windrichting
ppp = luchtdruk
vv = zicht
sd = Zonneschijnduur

Weerstations in de omgeving